User: anonymous   Login
Location: Unspecified
(0.0000°N, 0.0000°E)
Time: 13:01:33
(UTC+00:00)
Language:

deb r/b Ablestar - Orbit

View from above orbital plane
View from above orbital plane
View from above satellite
View from above satellite

Ground track
Ground track

The orbit data is extracted from the following two-line orbital elements,

1 00335U 61015DM  16126.35812099  .00000487  00000-0  28293-3 0  9993
2 00335  66.8425 196.8730 0040261   8.6772 351.5007 14.16488084803726
Epoch (UTC): 05 May 2016 08:35:41
Eccentricity: 0.0040261
inclination: 66.8425°
perigee height: 808 km
apogee height: 866 km
right ascension of ascending node: 196.8730°
argument of perigee: 8.6772°
revolutions per day: 14.16488084
mean anomaly at epoch: 351.5007°
orbit number at epoch: 80372

The dashed part of the orbit path shows where the satellite is in the earth's shadow,  

DLR